Theta_e
343 343 342 342 344 343 340 340 337 332 329 328 326 324 321 318 316 314 313 312 312 312 311 310 309 310 311 311 312 312 313 313 313 313 313 312 313 313 313 314 314 314 314
341 343 340 340 339 337 336 332 329 327 323 318 314 313 312 312 312 312 313 311 308 308 310 311 311 310 311 311 312 313 313 312 312 312 312 313 313 313 313 312 313 313 313
340 338 336 336 335 332 328 324 319 316 314 313 313 313 313 313 313 312 309 309 310 311 310 310 311 313 313 312 312 312 312 312 312 312 312 312 312 314 313 314 314 314 313
335 334 332 328 326 319 317 314 313 313 313 312 313 313 313 311 309 308 310 310 312 314 315 315 313 312 312 312 311 310 310 309 309 310 310 311 313 314 313 312 312 312 311
328 326 322 319 316 314 313 312 312 312 311 311 311 310 308 308 309 310 313 314 315 315 316 314 312 311 310 310 310 312 311 311 312 311 311 312 314 314 312 310 310 311 311
319 317 314 313 312 313 312 309 308 308 308 308 308 307 307 308 311 313 314 315 315 314 314 314 313 313 314 314 313 312 310 309 309 308 311 311 311 311 309 309 309 308 308
314 313 312 311 310 308 308 308 308 308 308 307 306 305 306 307 310 313 314 313 314 313 313 313 314 314 314 315 314 314 314 312 309 308 308 310 309 310 308 310 310 309 309
311 310 309 308 308 308 308 309 309 308 307 305 305 306 307 309 311 313 312 313 313 313 313 313 313 313 313 313 313 313 313 312 313 312 310 311 311 310 309 309 308 308 308
309 308 308 308 308 308 308 309 309 307 305 305 306 308 310 312 312 312 312 313 313 313 313 312 311 312 312 313 312 310 310 310 311 311 312 312 310 309 310 309 307 306 308
308 307 307 307 308 308 308 309 309 307 306 306 308 310 311 310 312 313 312 312 313 312 313 312 312 311 311 311 311 309 309 310 311 312 312 311 310 311 311 309 307 305 306
307 307 307 307 307 308 308 308 308 308 308 309 310 310 310 311 312 313 312 312 312 312 313 312 312 312 311 310 311 310 309 310 310 310 311 311 311 311 310 308 306 306 306
306 307 307 307 307 307 307 307 307 308 308 309 309 309 309 310 311 311 312 311 311 312 312 311 312 313 313 313 312 311 311 310 310 310 309 309 308 310 311 310 307 308 308
306 305 305 306 307 307 307 307 307 307 308 308 308 309 308 308 308 310 310 309 310 311 310 311 312 313 312 312 312 312 312 311 311 310 310 309 308 307 311 311 309 309 309
304 304 304 304 305 306 306 306 306 306 305 306 306 307 306 307 308 308 307 309 309 310 310 311 312 312 312 311 311 312 312 310 309 310 309 309 308 308 308 311 311 310 309
303 302 302 303 303 304 304 304 305 304 304 304 303 304 305 305 305 302 303 307 307 307 307 308 309 310 311 311 311 311 311 311 311 310 309 308 306 306 306 309 310 310 309
302 301 301 302 302 303 303 302 301 301 301 301 299 297 297 296 298 299 300 302 303 306 306 305 301 299 301 306 309 310 309 310 311 311 309 308 307 307 306 308 309 309 309
300 300 300 301 302 301 299 300 300 298 299 299 298 297 297 296 296 295 297 300 302 304 305 299 295 294 295 298 303 306 308 308 310 310 310 309 307 307 305 306 307 308 307
300 299 300 300 300 299 298 296 295 296 296 295 295 294 295 296 295 298 298 295 296 295 293 293 291 291 292 293 296 303 306 308 309 310 310 310 309 307 307 305 305 305 305
297 297 295 295 295 294 293 293 294 294 294 294 293 293 293 292 292 293 293 293 292 290 290 289 290 290 290 291 292 295 303 306 307 309 310 310 309 308 308 306 305 304 305
298 296 294 293 293 293 292 292 292 292 292 293 293 292 293 292 292 291 291 290 290 289 288 289 289 289 290 290 291 292 299 304 306 307 308 310 310 308 308 307 305 305 306
295 295 294 293 292 292 292 292 292 292 291 291 291 292 292 292 291 291 291 290 289 289 288 288 288 289 289 290 290 291 293 299 302 304 305 308 308 309 309 309 309 307 307
292 293 292 292 292 291 291 291 291 291 291 290 290 291 291 291 290 290 290 289 289 288 288 287 287 288 288 289 290 290 290 295 298 301 303 304 305 308 308 309 309 309 308
292 292 291 291 291 291 291 290 290 290 290 290 290 290 290 290 290 289 289 289 289 288 287 287 287 288 288 288 289 289 289 291 295 295 299 301 302 304 305 307 308 308 309
292 292 291 291 291 290 290 290 290 289 289 289 289 289 288 289 288 288 288 288 288 287 287 287 287 287 287 288 288 288 289 289 292 294 295 296 300 302 303 302 306 307 308
292 292 291 291 291 291 290 290 289 289 289 289 288 288 288 287 287 288 287 287 287 286 286 286 287 287 287 287 288 288 288 289 289 291 293 294 295 299 300 299 299 304 307
292 292 291 291 291 290 290 290 290 289 289 288 288 288 287 287 287 286 286 286 286 286 286 286 286 286 287 287 287 288 288 288 289 289 291 292 293 295 298 298 298 298 302
Wind_Speed
21 21 18 17 20 20 17 14 9 7 4 3 4 6 8 12 14 16 18 19 21 22 24 25 25 25 24 22 22 22 24 25 34 39 39 40 39 39 39 39 38 38 37
24 24 20 17 14 10 10 9 8 6 5 4 5 7 10 12 14 17 19 22 23 23 22 21 20 21 20 20 23 26 28 29 32 39 40 43 42 42 43 42 39 35 34
27 25 21 20 15 13 13 10 7 4 2 3 6 8 10 13 16 20 21 19 17 17 17 18 18 19 22 25 27 30 32 33 34 39 45 44 44 36 31 30 30 27 25
25 23 21 18 15 13 10 6 3 0 3 5 8 10 12 16 19 15 13 12 12 14 15 16 18 20 22 25 29 32 35 37 38 40 43 39 33 31 34 31 33 30 28
24 21 21 18 14 11 7 3 0 2 3 6 9 11 14 14 9 10 12 12 14 15 16 18 20 24 25 27 32 34 31 29 28 27 31 33 36 37 34 32 32 29 28
26 23 20 16 12 8 4 1 3 5 6 6 7 8 10 8 10 14 15 16 16 17 20 22 25 28 29 28 25 25 25 26 26 26 30 32 33 34 33 32 32 29 27
26 22 16 12 9 6 4 4 6 7 6 6 8 9 12 12 14 15 16 16 18 21 23 25 25 27 27 29 29 29 29 24 21 22 26 28 29 30 29 31 30 25 27
22 19 14 10 9 8 8 8 9 8 8 10 10 12 10 11 13 15 16 19 21 23 26 26 27 28 30 32 33 32 31 29 25 24 19 22 21 22 26 30 26 28 26
20 17 13 11 10 10 9 9 8 8 9 11 11 9 9 10 12 13 16 19 22 24 27 29 27 27 27 28 31 36 32 26 19 16 16 19 19 17 23 28 25 23 24
18 17 13 10 10 9 9 9 9 8 8 10 9 10 9 10 14 12 12 17 22 24 26 26 26 25 23 26 35 34 33 29 23 20 18 18 16 20 21 25 21 17 15
17 16 13 11 11 10 8 9 9 9 9 8 6 8 9 10 10 8 11 17 22 25 26 25 23 22 22 27 31 30 30 29 27 25 23 24 21 25 25 22 22 13 10
14 14 13 12 11 10 8 8 8 8 8 8 7 7 8 8 7 7 9 14 18 21 23 22 20 20 24 26 26 25 24 30 31 32 31 34 35 29 25 20 16 15 13
16 16 15 13 12 12 9 9 9 10 10 10 9 8 7 6 7 7 8 11 11 16 18 23 21 21 23 23 25 27 30 29 29 35 35 36 36 34 22 16 13 11 10
17 16 15 14 12 12 12 13 12 12 12 14 12 10 9 8 8 10 14 11 10 11 14 18 21 25 28 28 27 30 32 35 35 36 36 40 36 32 24 15 13 17 15
17 15 14 14 14 14 15 16 15 15 15 17 18 17 12 12 15 20 19 13 10 13 12 16 19 23 25 28 30 32 33 35 37 36 38 41 42 38 27 15 13 13 13
16 15 16 16 16 17 15 15 16 16 16 17 19 21 22 23 16 13 13 11 9 8 14 19 23 27 30 30 30 32 35 36 37 38 39 39 43 36 32 22 17 17 17
17 17 19 17 15 16 17 16 16 17 16 16 17 18 20 20 20 18 14 11 8 8 17 21 24 26 28 29 29 31 33 35 36 37 37 40 41 36 41 32 24 20 20
16 16 17 16 15 15 15 17 17 16 15 16 19 17 17 16 16 14 13 13 17 20 22 22 24 25 27 28 28 29 29 30 33 34 36 37 39 39 34 40 33 24 21
20 19 17 18 18 19 20 20 18 14 12 13 13 14 16 18 17 18 17 19 23 24 24 25 25 26 27 27 27 28 28 29 31 33 34 36 38 37 38 36 35 30 26
13 15 16 16 16 15 15 15 14 16 16 13 14 15 12 13 19 21 22 22 22 24 25 25 26 27 28 29 28 28 27 26 27 30 33 34 35 36 35 34 35 32 32
13 15 15 15 13 12 11 12 12 13 16 16 15 13 12 15 18 19 20 23 23 23 24 26 26 28 29 29 30 30 28 27 27 28 30 31 35 33 33 32 31 32 29
13 11 10 11 10 10 13 13 12 11 13 15 14 10 9 12 14 16 18 20 21 22 22 24 26 28 29 30 31 31 31 27 26 26 26 28 30 31 33 31 30 28 27
15 15 15 15 13 12 12 12 13 12 10 11 12 11 12 10 11 13 15 17 19 21 22 22 24 25 26 27 29 31 31 29 25 26 25 25 26 27 31 32 29 28 26
15 13 13 12 11 13 11 9 10 10 10 8 9 11 10 10 10 10 12 15 18 19 21 21 23 24 24 25 26 27 28 26 21 20 22 23 22 21 24 29 29 26 26
12 14 13 12 10 10 11 10 8 6 7 8 9 9 10 10 10 12 13 14 17 18 20 20 21 22 22 23 24 24 24 24 23 18 18 20 21 20 21 24 28 27 24
9 8 9 9 8 6 4 4 5 4 4 6 8 10 11 11 12 14 15 16 17 18 18 19 19 20 21 22 23 22 22 23 23 21 19 19 21 20 20 21 24 27 27
Wind_Direction
162 168 173 174 161 156 161 158 169 186 203 238 251 274 288 296 302 304 305 305 309 311 312 312 311 311 311 312 308 304 301 300 302 304 305 307 307 306 306 306 306 303 298
170 160 159 164 154 170 164 161 169 181 192 228 277 290 291 298 305 311 314 317 318 319 319 318 317 314 311 313 314 315 314 310 308 307 307 309 309 308 308 307 307 304 300
157 152 144 145 160 158 160 165 172 181 226 281 293 300 306 312 317 319 322 325 328 327 323 324 325 324 323 322 318 313 311 307 304 303 303 302 304 312 312 313 315 309 307
148 141 140 144 149 146 144 144 143 61 313 307 307 308 313 317 322 328 336 340 338 338 335 332 339 334 328 321 315 312 308 305 305 305 306 311 316 315 312 317 315 309 309
141 146 140 139 140 137 133 136 164 297 308 310 307 315 321 328 352 8 7 359 352 350 349 347 345 343 330 317 316 320 321 321 318 317 317 318 319 316 314 314 311 314 312
139 134 132 132 131 132 126 74 351 341 332 323 321 338 340 22 45 25 19 15 7 1 355 351 348 339 333 329 331 340 336 327 322 322 317 314 320 321 321 315 311 313 314
131 125 126 127 122 102 67 33 32 34 33 38 38 29 35 40 41 33 31 24 19 11 358 352 346 343 345 351 350 352 350 346 338 334 326 330 329 336 326 324 321 310 311
122 120 117 110 96 85 76 63 52 49 53 64 55 52 43 47 41 36 39 32 26 20 11 359 350 349 354 358 354 352 350 341 337 335 337 338 337 345 346 334 324 317 309
113 108 101 94 92 90 83 75 69 73 80 81 73 62 56 46 54 50 43 38 36 26 15 5 4 3 359 0 357 0 1 0 349 359 357 347 343 339 336 331 335 328 316
108 105 103 100 94 91 84 75 76 96 87 83 80 66 59 52 54 50 43 34 24 20 18 13 17 14 14 12 12 10 14 10 5 4 355 0 351 349 339 347 338 337 331
104 100 98 93 86 78 75 75 86 101 101 89 77 63 66 64 57 50 39 27 22 23 21 25 27 24 22 23 18 17 16 18 24 21 12 7 4 4 356 2 16 5 2
105 100 95 92 87 85 88 90 96 95 99 93 85 78 61 62 58 39 16 16 20 23 23 30 30 31 32 27 18 12 18 23 24 25 25 24 19 9 15 8 16 30 42
111 101 94 92 91 90 97 97 96 94 94 95 89 77 76 62 46 31 17 14 26 29 30 39 35 35 38 31 28 24 23 23 22 20 19 20 22 13 11 35 37 18 16
104 94 94 91 88 95 94 87 79 77 84 72 67 65 57 51 45 35 31 31 41 29 17 29 34 38 41 35 29 29 28 30 27 24 24 20 24 11 12 20 26 29 30
99 93 93 89 86 92 99 91 83 75 72 71 61 54 46 31 24 11 9 21 26 16 20 23 30 35 34 37 34 32 27 27 30 28 26 22 22 18 17 21 24 26 20
100 94 96 91 87 87 88 94 94 90 85 78 74 64 54 42 31 22 24 25 16 359 24 21 28 31 29 26 27 29 28 29 29 30 31 28 31 21 25 36 33 30 28
96 94 97 92 88 85 84 86 89 86 81 76 70 64 59 52 46 45 40 40 33 31 42 27 29 29 29 27 26 28 28 29 29 33 32 34 34 30 25 29 31 34 36
97 96 97 95 91 91 86 79 79 80 75 72 62 60 48 46 42 39 44 45 52 47 43 37 33 31 29 27 27 28 30 28 30 34 36 37 38 35 27 23 29 33 38
103 99 92 94 95 91 84 82 79 83 84 85 76 69 59 54 52 45 41 44 45 42 39 39 37 34 32 29 28 31 31 31 28 32 35 35 36 35 37 35 28 38 42
115 111 103 101 97 96 97 90 84 72 71 81 78 72 58 51 49 46 42 42 43 42 38 37 36 35 33 31 30 31 33 35 33 33 36 39 38 36 35 37 39 37 46
122 119 119 116 114 110 104 93 89 73 70 77 77 75 66 61 55 48 40 35 34 35 34 33 33 32 32 30 31 31 34 35 36 33 35 39 39 38 37 38 41 45 45
129 138 135 128 118 106 100 94 95 90 78 73 71 78 75 66 57 46 38 30 28 28 28 29 31 30 28 26 27 29 29 32 34 36 32 36 41 41 40 38 38 40 43
119 114 105 108 116 111 104 97 92 86 79 68 66 64 59 59 50 37 28 22 21 22 24 23 27 29 28 27 26 25 26 28 28 29 31 32 34 40 43 38 37 40 39
128 114 106 103 106 107 112 100 90 90 83 66 54 53 46 41 38 27 16 9 10 17 21 22 23 23 23 25 26 27 26 25 26 26 27 30 29 31 43 43 40 36 36
128 130 125 120 113 104 106 105 98 82 69 59 43 35 35 25 23 22 18 14 13 16 19 20 19 20 20 22 25 25 25 23 23 24 27 28 27 29 39 42 39 39 38
164 158 147 145 141 140 122 96 91 75 41 23 17 8 11 15 11 12 14 16 15 16 16 19 20 19 18 20 22 20 21 22 22 24 26 28 28 29 34 37 39 37 36